Location: Habighorst
(52.7089°N, 10.2278°E)
Time: 00:04:28
(UTC+00:00)

Cosmos 1515 Rocket - Pass Details

Date: 13 January 2026
Orbit: 599 x 623 km, 82.5° (Epoch: 17 February)

Event Time Altitude Azimuth Distance (km) Brightness Sun altitude
Exits shadow 05:06:08 47° 252° (WSW) 826 3.8 -20.1°
Drops below altitude 10° 05:10:02 10° 192° (SSW) 1,977 6.1 -19.6°
Sets 05:12:17 0° 187° (S) 2,873 7.0 -19.2°
